Retour au catalogue

SL-8 R/B

ActifPO
NORAD 20046·ROCKET BODY·🇷🇺 Russia

Lancé Jun 7, 1989 depuis Plesetsk Cosmodrome

Loading…

Prochains Passages (prochaines 24 heures)

TLE

FraisSource: Space-Track

Époque: Sep 14, 2026, 22:00 UTC

1 20046U 89042B   26257.91730255  .00000113  00000-0  96232-4 0  9990
2 20046  82.9360 305.7204 0040893 318.2827  41.5215 13.78653055874200

Suivez SL-8 R/B en temps réel avec AllMySat

Download on the App Store